Location: *
(37.9500°N, 27.3666°E)
Time: 05:57:03
(UTC+00:00)

Cosmos 614 Rocket - Pass Details

Date: 31 May 2022
Orbit: 732 x 764 km, 74.1° (Epoch: 03 July)

Event Time Altitude Azimuth Distance (km) Brightness Sun altitude
Rises 23:21:56 0° 344° (NNW) 3,222 8.0 -27.6°
Reaches altitude 10° 23:24:20 10° 347° (NNW) 2,296 7.2 -27.4°
Maximum altitude 23:29:32 69° 71° (ENE) 815 4.1 -27.1°
Enters shadow 23:29:55 66° 101° (E) 831 4.1 -27.0°
